Regional Weather Roundup
Issued by NWS Midland/Odessa, TX

Skip options and go directly to product.
Home | Oldest Version | Previous Version | Current Version | All | Text Only | Save Text | Print | Product List | Glossary Off

Skip product version selection by date and time.   

332
ASUS44 KMAF 050010
RWRMAF
MIDLAND AREA WEATHER ROUNDUP
NATIONAL WEATHER SERVICE MIDLAND TX
600 PM CST WED MAR 04 2015

...IN SOUTHWEST TEXAS AND SOUTHEAST NEW MEXICO...

CITY           SKY/WX    TMP DP  RH WIND       PRES   REMARKS
ALPINE         CLOUDY    47  45  92 NE10      30.03R
ANDREWS        CLOUDY    28  25  91 NE21G26   30.13R WCI  14
ARTESIA        CLOUDY    30  25  80 N16       30.17R WCI  19
BIG SPRING     CLOUDY    29  25  85 NE22G33   30.14R WCI  15
CARLSBAD       CLOUDY    35  28  75 N14       30.14R WCI  26
DRYDEN           N/A     50  43  77 NE21G31   29.92R
FORT STOCKTON  CLOUDY    38  38 100 E17       30.03R WCI  28
GUAD PASS      NOT AVBL
HOBBS          CLOUDY    27  27 100 N23G31    30.12R WCI  12
MARFA          CLOUDY    50  43  76 N13       29.98R
MIDLAND AIRPK  MIX PCPN  30  28  90 NE17G25   30.12R WCI  18
MIDLAND INTL   CLOUDY    30  27  88 NE24G35   30.12R WCI  16
ODESSA         CLOUDY    31  28  89 NE22G32   30.11R WCI  18
PECOS          DRIZZLE   40  38  91 NE17G28   30.06R WCI  31
PRESIDIO       FAIR      68  43  39 NW15G24   29.85R
SEMINOLE       CLOUDY    27  24  88 NE20G29   30.14R WCI  13
SNYDER         FLURRIES  25  22  91 N18       30.15R WCI  11
WINK           LGT RAIN  36  30  79 NE24G35   30.06R WCI  24
$$
...OTHER STATIONS IN TEXAS...

CITY           SKY/WX    TMP DP  RH WIND       PRES   REMARKS
ABILENE        CLOUDY    27  24  89 N23G31    30.14R WCI  12
AMARILLO       CLOUDY    21  17  84 N18       30.21R WCI   6
AUSTIN         LGT RAIN  47  45  93 N26G36    29.93R FOG     WCI  38
BROWNSVILLE    CLOUDY    75  69  81 SE15      29.74R
CORPUS CHRISTI CLOUDY    73  69  87 SE13      29.76R
DALLAS FTW     FRZ RAIN  31  28  89 N28G39    30.09R WCI  17
DEL RIO        CLOUDY    57  45  64 N24G37    29.85R
EL PASO        PTSUNNY   60  26  27 NW15      29.94R
HOUSTON INT    CLOUDY    75  66  73 S6        29.81R
LUBBOCK        LGT SNOW  22  18  85 N22G29    30.18R BLWGSNOWWCI   6
SAN ANGELO     MIX PCPN  32  30  92 NE18      30.06S WCI  20
SAN ANTONIO    CLOUDY    60  55  83 N22G35    29.84R
WACO           CLOUDY    35  33  92 N21G32    30.05R FOG     WCI  24
WICHITA FALLS  NOT AVBL
$$
...OTHER LOCATIONS IN NEW MEXICO...

CITY           SKY/WX    TMP DP  RH WIND       PRES   REMARKS
ALAMAGORDO     PTSUNNY   54  30  40 W6        29.97R
ALBUQUERQUE    MOSUNNY   49  13  23 NW12      29.98R
CANNON AFB     LGT SNOW  21  18  86 NE17      30.15R WCI   7
CLOVIS         CLOUDY    21  18  86 NE20      30.16R WCI   6
HOLLOMAN AFB   MOSUNNY   54  35  48 W6        29.96R
ROSWELL        LGT SNOW  29  25  85 N13       30.16R VSB 3/4 WCI  19
RUIDOSO        CLOUDY    25  23  93 S8        30.06R WCI  16
SANTA FE       MOSUNNY   41  12  30 W22G28    29.94R WCI  31
TRUTH OR CONSE MOSUNNY   52  25  35 S3        29.96S
TUCUMCARI      CLOUDY    23  17  78 NE13      30.19R WCI  11
$$

USA.gov is the U.S. government's official web portal to all federal, state and local government web resources and services.